(65) Cybele
ephemeris date magn radius delta ra dec elong phase
Today27 Jul 202612.93.154 AU3.557 AU12h12m+01°00'58.9°16.0°
Opposition12 Jun 202710.92.972 AU1.959 AU17h25m-18°00'174.7°1.8°
(65) Cybele - 2026-07-27
astro.vanbuitenen.nl


 
-1 year
-1 month
-1 day
Now
+1 day
+1 month
+1 year

The interactive orbit chart above shows the body's path through the solar system and its position at the given date. Green and blue lines are shown perpendicular to the ecliptic plane: Green if the path is above the ecliptic plane, blue if it is below. (Left-click and drag to rotate the view; Right-click and drag to move the view; Use scroll wheel to zoom in our out.)

The orbital elements of Cybele are:

            e (Eccentricity)                : 0.1278729
            a (Semimajor axis)              : 3.4071491
            i (Inclination)                 : 3.56527
            Ω (Longitude of ascending node) : 155.09993
            ω (Argument of perihelion)      : 104.22709
            M (Mean anomaly)                : 303.90322
            Epoch                           : 2026 Jun 09

            L (Longitude of perihelion)     : 79.35349
            B (Latitude of perihelion)      : 3.45579
            P (Orbital period in years)     : 6.29            
        

The light curve chart below shows the estimated development of the minor planet's magnitude.


The all-sky chart below shows the path of the minor planet over the same period as the light curve. The current position is marked yellow.





The following chart shows the path of the minor planet in the next few days. The field of view is optimized for (~10x50) binoculars and finderscopes.




Ephemerides:
Date       Time       RA (2000)    DEC (2000)    delta   radius  elong  phase   PA    magn
2026-07-27 00:00 UT   12 12 37.5   +01 00 02     3.557    3.154   58.9   16.0   112   12.9 
2026-07-27 21:14 UT   12 13 34.6   +00 53 51     3.566    3.153   58.3   15.9   112   12.9 
2026-07-28 00:00 UT   12 13 42.1   +00 53 03     3.568    3.153   58.2   15.9   112   12.9 
2026-07-29 00:00 UT   12 14 47.1   +00 46 01     3.578    3.152   57.6   15.8   112   12.9 
2026-07-30 00:00 UT   12 15 52.6   +00 38 57     3.589    3.151   56.9   15.7   112   12.9 
2026-07-31 00:00 UT   12 16 58.5   +00 31 50     3.599    3.150   56.2   15.5   112   12.9 
2026-08-01 00:00 UT   12 18 04.8   +00 24 40     3.609    3.149   55.6   15.4   112   12.9 
2026-08-02 00:00 UT   12 19 11.6   +00 17 28     3.620    3.148   54.9   15.3   112   12.9 
2026-08-03 00:00 UT   12 20 18.8   +00 10 14     3.630    3.147   54.3   15.2   112   12.9 
2026-08-04 00:00 UT   12 21 26.4   +00 02 57     3.640    3.146   53.6   15.1   112   12.9 
2026-08-05 00:00 UT   12 22 34.4   +00 04 22     3.650    3.145   53.0   14.9   112   13.0 
2026-08-06 00:00 UT   12 23 42.8   +00 11 44     3.659    3.144   52.3   14.8   112   13.0 
2026-08-07 00:00 UT   12 24 51.7   +00 19 07     3.669    3.143   51.7   14.7   112   13.0 
2026-08-08 00:00 UT   12 26 00.9   +00 26 33     3.679    3.142   51.1   14.5   112   13.0 
2026-08-09 00:00 UT   12 27 10.6   +00 34 01     3.688    3.141   50.4   14.4   111   13.0 
2026-08-10 00:00 UT   12 28 20.6   +00 41 31     3.698    3.140   49.8   14.3   111   13.0 
2026-08-11 00:00 UT   12 29 31.0   +00 49 03     3.707    3.139   49.1   14.1   111   13.0 
2026-08-12 00:00 UT   12 30 41.8   +00 56 37     3.716    3.138   48.5   14.0   111   13.0 
2026-08-13 00:00 UT   12 31 53.0   -01 04 13     3.725    3.137   47.9   13.9   111   13.0 
2026-08-14 00:00 UT   12 33 04.6   -01 11 51     3.734    3.136   47.2   13.7   111   13.0 
2026-08-15 00:00 UT   12 34 16.5   -01 19 30     3.743    3.135   46.6   13.6   111   13.0 
2026-08-16 00:00 UT   12 35 28.8   -01 27 11     3.752    3.134   46.0   13.4   111   12.9 
2026-08-17 00:00 UT   12 36 41.4   -01 34 54     3.761    3.133   45.3   13.3   111   12.9 
2026-08-18 00:00 UT   12 37 54.4   -01 42 39     3.769    3.132   44.7   13.1   111   12.9 
2026-08-19 00:00 UT   12 39 07.8   -01 50 25     3.778    3.131   44.1   13.0   111   12.9 
2026-08-20 00:00 UT   12 40 21.4   -01 58 12     3.786    3.130   43.4   12.8   111   12.9 
2026-08-21 00:00 UT   12 41 35.5   -02 06 01     3.794    3.129   42.8   12.7   111   12.9 
2026-08-22 00:00 UT   12 42 49.8   -02 13 51     3.803    3.128   42.2   12.5   111   12.9 


    Terminology:
            
    delta:  distance between minor planet and earth in AU
    radius: distance between minor planet and sun in AU
    magn:   magnitude (brightness) estimate    
    ra:     right ascension in hours (24h = 360deg)
    dec:    declination in degrees
    elong:  elongation in degrees (angle sun-earth-minor planet)    
    phase:  phase angle in degrees (angle sun-minor planet-earth)        
    AU:     Astronomical Unit (mean distance between earth and sun: 149597870.7 km
    

Orbital elements provided by the MPC (Minor Planet Center).
Calculations by a modified version of AAPlus, a C# implementation of the AA+ project by PJ Naughter from the algorithms presented in the book "Astronomical Algorithms" by Jean Meeus.
NGC2000 dso catalog and star labels from VizieR as provided by the Strasbourg astronomical Data Center.
Tycho2 catalog from the ESO archive.